Location: Piolenc
(44.1794°N, 4.7641°E)
Time: 04:34:13
(UTC+00:00)

GEOS 3 Rocket - Pass Details

Date: 27 January 2021
Orbit: 771 x 848 km, 115.0° (Epoch: 27 February)

Event Time Altitude Azimuth Distance (km) Brightness Sun altitude
Rises 06:13:47 0° 155° (SSE) 3,360 7.5 -9.2°
Reaches altitude 10° 06:16:07 10° 160° (SSE) 2,439 6.7 -8.8°
Maximum altitude 06:21:20 54° 237° (WSW) 1,018 3.9 -7.9°
Drops below altitude 10° 06:26:37 10° 315° (NW) 2,477 5.6 -7.0°
Enters shadow 06:27:58 - 318° (NW) 3,001 6.0 -6.8°
